Location: Rounton
(54.4000°N, 1.3500°W)
Time: 14:22:42
(UTC+00:00)

Transit 4A - Pass Details

Date: 03 December 2021
Orbit: 864 x 981 km, 66.8° (Epoch: 18 January)

Event Time Altitude Azimuth Distance (km) Brightness Sun altitude
Rises 18:13:27 0° 162° (SSE) 3,459 10.8 -20.5°
Enters shadow 18:16:30 - 145° (SE) 2,606 10.0 -20.9°
Reaches altitude 10° 18:16:46 10° 143° (SE) 2,543 - -20.9°
Maximum altitude 18:20:23 17° 104° (ESE) 2,108 - -21.5°
Drops below altitude 10° 18:24:05 10° 66° (ENE) 2,599 - -22.0°
Sets 18:27:30 0° 48° (NE) 3,570 - -22.5°
